30.06.2024;16:00;9
30.06.2024;15:00;8
30.06.2024;14:00;7
30.06.2024;13:00;10
30.06.2024;12:00;9
30.06.2024;11:00;11
30.06.2024;10:00;15
30.06.2024;09:00;19
30.06.2024;08:00;21
30.06.2024;07:00;26
30.06.2024;06:00;35
30.06.2024;05:00;46
30.06.2024;04:00;36
30.06.2024;03:00;26
30.06.2024;02:00;25
30.06.2024;01:00;25
29.06.2024;24:00;23
29.06.2024;23:00;19
29.06.2024;22:00;16
29.06.2024;21:00;15
29.06.2024;20:00;17
29.06.2024;19:00;18
29.06.2024;18:00;20
29.06.2024;17:00;21
29.06.2024;16:00;20
29.06.2024;15:00;19
29.06.2024;14:00;20
29.06.2024;13:00;22
29.06.2024;12:00;22
29.06.2024;11:00;21
29.06.2024;10:00;21
29.06.2024;09:00;21
29.06.2024;08:00;23
29.06.2024;07:00;22
29.06.2024;06:00;24
29.06.2024;05:00;27
29.06.2024;04:00;26
29.06.2024;03:00;23
29.06.2024;02:00;24
29.06.2024;01:00;22
28.06.2024;24:00;19
28.06.2024;23:00;16
28.06.2024;22:00;14
28.06.2024;21:00;14
28.06.2024;20:00;13
28.06.2024;19:00;13
28.06.2024;18:00;15
28.06.2024;17:00;19
28.06.2024;16:00;22
28.06.2024;15:00;23
28.06.2024;14:00;22
28.06.2024;13:00;21
28.06.2024;12:00;18
28.06.2024;11:00;15
28.06.2024;10:00;12
28.06.2024;09:00;13
28.06.2024;08:00;13
28.06.2024;07:00;18
28.06.2024;06:00;21
28.06.2024;05:00;20
28.06.2024;04:00;17
28.06.2024;03:00;12
28.06.2024;02:00;10
28.06.2024;01:00;9
27.06.2024;24:00;11
27.06.2024;23:00;15
27.06.2024;22:00;15
27.06.2024;21:00;14
27.06.2024;20:00;21
27.06.2024;19:00;29
27.06.2024;18:00;26
27.06.2024;17:00;21
27.06.2024;16:00;19
27.06.2024;15:00;14
27.06.2024;14:00;10
27.06.2024;13:00;11
27.06.2024;12:00;15
27.06.2024;11:00;19
27.06.2024;10:00;17
27.06.2024;09:00;16
27.06.2024;08:00;14
27.06.2024;07:00;14
27.06.2024;06:00;16
27.06.2024;05:00;17
27.06.2024;04:00;17
27.06.2024;03:00;18
27.06.2024;02:00;18
27.06.2024;01:00;14
26.06.2024;24:00;11
26.06.2024;23:00;9
26.06.2024;22:00;9
26.06.2024;21:00;9
26.06.2024;20:00;13
26.06.2024;19:00;20
26.06.2024;18:00;23
26.06.2024;17:00;29
26.06.2024;16:00;31
26.06.2024;15:00;34
26.06.2024;14:00;38
26.06.2024;13:00;34
26.06.2024;12:00;29
26.06.2024;11:00;25
26.06.2024;10:00;22
26.06.2024;09:00;18
26.06.2024;08:00;19
26.06.2024;07:00;21
26.06.2024;06:00;21
26.06.2024;05:00;19
26.06.2024;04:00;18
26.06.2024;03:00;20
26.06.2024;02:00;19
26.06.2024;01:00;19
25.06.2024;24:00;20
25.06.2024;23:00;19
25.06.2024;22:00;21
25.06.2024;21:00;21
25.06.2024;20:00;20
25.06.2024;19:00;21
25.06.2024;18:00;22
25.06.2024;17:00;23
25.06.2024;16:00;21
25.06.2024;15:00;18
25.06.2024;14:00;16
25.06.2024;13:00;16
25.06.2024;12:00;13
25.06.2024;11:00;11
25.06.2024;10:00;11
25.06.2024;09:00;10
25.06.2024;08:00;11
25.06.2024;07:00;10
25.06.2024;06:00;11
25.06.2024;05:00;11
25.06.2024;04:00;11
25.06.2024;03:00;10
25.06.2024;02:00;10
25.06.2024;01:00;10
